Wind_Speed
9 9 10 10 11 12 12 13 12 12 11 11 11 10 9 10 11 12 11 11 11 10 10 10 9 9 9 8 7 6 5 5 5 4 4 4 4 4 3 3 3 3 3 3 3 3 2 2 2
9 10 10 11 11 12 14 14 13 12 12 11 10 9 7 8 9 11 11 12 12 11 11 10 10 9 9 9 8 7 6 5 4 3 3 3 2 2 2 1 1 1 1 1 1 1 1 1 1
10 10 10 11 11 12 14 14 14 13 12 11 9 8 7 7 9 10 12 12 13 12 11 11 10 10 10 9 8 7 6 5 4 3 2 2 2 1 1 0 1 1 1 1 1 1 1 1 1
10 9 10 10 12 13 14 14 14 14 13 11 10 8 7 7 8 10 12 12 13 13 12 11 11 11 10 10 8 7 6 5 4 4 3 3 2 2 2 2 2 2 2 2 2 2 2 2 2
9 9 10 10 12 13 14 14 13 13 13 12 10 9 9 8 9 10 11 12 13 13 12 12 12 11 11 10 8 7 6 6 5 5 4 4 4 4 4 4 4 3 3 3 4 4 4 4 3
9 9 9 10 12 13 14 14 14 13 13 12 11 11 10 10 11 11 12 12 14 13 13 12 12 12 11 10 9 8 7 7 6 6 5 5 6 5 5 5 5 6 5 5 5 5 5 5 6
9 9 9 10 12 13 14 14 14 14 13 13 12 12 11 11 12 13 13 13 15 14 14 13 13 12 12 11 10 9 8 8 7 7 6 6 6 6 6 6 7 7 7 7 7 7 7 7 7
9 9 9 10 11 13 13 14 14 14 14 13 13 13 13 13 13 15 15 15 15 15 15 14 14 13 12 11 10 9 9 8 8 8 8 7 8 8 8 8 8 8 8 8 9 9 8 8 8
10 9 9 10 11 13 13 14 14 14 14 14 14 14 14 15 15 16 16 16 15 15 16 16 15 14 13 12 11 11 10 9 9 9 9 9 8 9 9 9 9 9 9 9 9 9 9 9 9
10 9 9 10 11 13 14 15 15 14 14 15 15 14 14 15 16 17 18 19 18 17 18 18 17 15 13 13 12 12 11 11 10 10 9 9 9 10 10 10 9 9 9 9 10 10 9 9 9
9 9 10 11 12 14 15 15 15 15 15 16 16 16 16 15 17 18 19 20 21 20 20 19 17 15 14 13 13 12 11 11 10 10 10 10 10 10 9 10 10 10 9 10 10 10 9 8 8
9 10 11 12 13 15 15 15 15 15 16 16 16 15 15 16 17 20 21 20 21 22 21 20 18 16 15 14 13 13 11 11 11 11 10 10 9 9 9 9 9 9 9 10 10 9 8 8 8
9 10 11 13 14 15 16 16 16 16 16 15 15 15 15 16 18 19 22 23 23 23 22 22 20 18 16 15 14 13 12 11 10 10 9 9 9 8 8 9 9 9 9 9 9 9 8 9 9
9 10 12 13 15 16 16 16 16 16 16 15 15 14 14 15 16 18 21 24 24 24 23 22 21 18 17 15 15 13 12 10 9 9 8 8 8 8 8 8 8 8 8 8 8 8 8 9 9
9 10 12 14 16 16 17 16 16 16 16 15 14 12 12 15 16 18 20 23 24 25 24 22 21 19 17 16 15 13 11 9 9 8 8 7 7 7 7 7 7 7 7 7 8 8 8 9 9
9 11 13 16 16 16 16 17 16 16 14 14 12 9 10 13 16 19 21 23 24 25 24 22 21 20 18 16 13 11 10 8 7 7 6 6 6 6 6 6 6 6 6 6 6 7 8 9 10
11 11 12 16 17 16 16 16 16 15 15 14 11 8 9 11 14 17 20 21 23 25 24 22 20 19 18 15 12 10 9 8 6 6 5 5 5 5 5 5 5 5 6 6 7 7 8 8 8
9 11 13 16 17 16 15 15 17 16 15 14 11 9 9 10 13 16 18 20 21 22 22 21 19 18 16 13 12 10 8 7 6 5 4 4 4 4 4 4 5 5 5 5 6 7 7 7 8
11 12 13 15 16 15 15 15 17 16 15 14 11 9 7 9 11 15 18 19 20 21 21 20 18 16 15 13 11 10 8 7 5 4 4 4 3 3 3 3 3 3 3 4 5 6 7 7 7
12 13 14 15 14 14 14 15 16 16 15 13 10 8 5 6 8 12 15 16 17 19 19 19 17 16 14 12 11 9 8 7 5 4 4 3 3 2 2 2 1 2 2 3 4 6 6 7 7
12 13 13 15 15 14 14 14 15 15 13 12 10 6 4 3 6 10 12 15 16 17 17 17 16 15 13 11 10 9 8 7 6 5 4 4 3 2 1 0 1 1 2 3 5 6 7 7 8
11 12 13 14 14 15 14 12 13 13 13 11 8 4 2 3 6 9 11 14 14 14 15 15 15 15 13 11 10 9 8 7 6 6 5 4 3 2 1 0 0 1 2 3 5 6 7 8 8
11 12 12 13 12 12 12 11 12 11 11 10 7 3 1 2 5 8 10 12 13 13 14 15 15 14 13 12 11 9 8 7 7 6 6 5 4 3 2 1 0 1 2 3 5 6 8 9 10
12 13 12 12 11 10 11 9 10 10 9 8 5 3 0 2 5 7 9 10 11 12 13 13 14 13 12 11 11 10 9 8 8 7 6 5 4 4 3 2 2 2 3 4 6 7 8 10 11
12 12 11 11 10 10 11 9 9 9 8 7 5 3 2 1 4 6 8 9 10 11 11 12 12 12 11 11 10 10 9 9 8 7 7 6 5 4 4 4 4 4 5 6 7 8 9 10 12
13 12 10 10 10 10 11 9 9 8 8 6 5 3 2 0 2 5 7 8 9 9 10 12 12 12 11 11 11 11 10 10 9 8 8 7 6 6 6 6 6 6 7 8 9 10 11 12 13
15 14 12 11 11 9 10 10 10 9 8 6 5 3 2 2 3 4 6 8 9 9 10 11 12 12 11 11 12 12 11 11 10 9 9 9 9 9 9 9 9 10 10 11 11 12 13 14 15
18 17 15 11 10 9 10 10 10 10 9 7 6 5 4 4 4 5 7 8 9 9 10 11 12 12 12 12 12 12 12 11 11 11 11 11 11 12 12 12 13 13 13 13 14 15 16 17 18
19 18 16 14 12 10 10 11 13 11 10 9 8 7 6 5 5 6 7 8 9 9 10 11 12 12 13 13 13 13 13 13 13 13 13 14 14 14 15 15 15 16 16 16 17 18 19 19 20
19 18 16 15 14 12 10 11 14 12 11 10 10 9 9 8 8 7 8 9 9 10 11 12 13 13 14 14 15 15 15 15 16 16 16 17 17 17 18 18 19 19 19 20 20 21 21 22 23
Wind_Direction
315 312 310 310 310 310 308 309 309 310 309 306 306 304 289 258 244 236 227 213 201 196 191 189 192 195 199 201 200 193 181 170 159 147 134 121 111 105 94 83 75 73 75 76 77 79 79 82 85
316 313 311 309 309 307 307 310 310 312 312 310 306 306 287 256 245 235 226 215 206 203 202 196 196 200 204 206 207 205 197 185 175 166 154 139 130 123 108 83 63 56 57 65 62 64 66 77 94
317 312 309 307 306 302 303 309 309 310 310 311 306 302 284 261 243 237 228 220 211 209 207 203 203 206 209 211 211 213 209 200 193 193 191 187 189 189 197 333 9 338 334 334 328 318 298 296 253
316 313 310 308 303 303 304 306 307 307 307 303 301 295 280 263 249 236 228 224 217 213 211 208 209 212 212 214 216 219 218 213 211 218 226 234 239 256 263 278 290 296 301 298 294 287 276 270 257
316 314 311 308 302 302 304 305 303 303 304 301 295 288 277 263 246 235 227 220 216 213 212 211 212 215 216 217 220 220 223 223 228 239 247 251 255 265 271 276 278 281 287 287 287 277 269 262 252
318 316 312 301 302 303 304 303 301 299 298 296 293 287 278 263 246 230 225 222 220 214 212 213 214 216 219 222 222 226 230 234 239 248 259 264 267 270 273 278 282 280 278 279 282 278 274 265 258
319 316 310 304 303 303 304 302 298 296 294 290 286 280 272 263 246 233 227 223 221 213 211 214 215 217 222 226 229 232 237 242 248 257 265 270 273 276 277 280 284 285 284 280 279 279 278 270 263
322 320 314 309 306 302 304 303 299 295 291 286 281 273 268 259 248 236 228 224 220 214 210 214 215 217 222 225 230 237 242 249 257 262 268 272 277 280 282 282 285 288 287 284 278 279 276 273 270
327 325 315 309 307 305 307 303 301 296 290 285 282 273 264 259 249 235 228 223 217 213 212 215 216 220 223 227 232 239 244 250 256 262 269 275 279 282 283 283 284 286 287 286 282 279 272 273 271
334 327 316 314 312 310 310 306 303 298 290 284 280 271 260 253 244 233 228 223 217 214 213 214 219 223 225 228 233 240 246 251 257 262 270 275 278 280 282 283 287 290 289 288 288 284 273 273 273
336 326 320 317 317 317 316 311 306 300 292 284 278 271 260 250 240 229 224 220 217 215 214 215 219 221 225 230 234 241 248 253 258 265 272 278 283 282 285 289 293 296 295 294 293 286 282 279 276
334 327 325 322 321 322 320 314 309 305 298 290 280 268 257 249 236 225 221 219 218 214 214 215 218 221 228 234 236 241 247 251 257 265 272 276 280 285 291 289 295 299 298 299 299 294 289 285 282
333 329 328 326 326 326 324 319 315 312 305 295 285 270 256 246 234 227 219 216 212 211 213 215 219 224 231 235 238 239 246 250 258 265 270 276 282 289 292 292 293 296 297 297 296 293 294 293 286
332 328 328 328 329 329 327 322 318 318 313 302 291 277 253 239 234 224 216 212 210 210 210 214 219 225 230 234 236 239 245 247 256 267 271 277 286 290 293 292 290 294 298 295 293 296 296 291 288
327 325 326 326 327 328 329 328 325 323 318 312 300 278 244 231 227 219 213 211 210 209 211 215 219 225 228 232 236 240 241 249 257 267 275 280 287 291 297 296 295 298 301 297 296 297 297 295 292
326 329 329 324 327 329 332 333 331 331 324 319 310 285 248 232 221 216 213 212 212 210 212 218 221 225 227 231 232 234 240 248 256 268 273 283 291 291 293 296 296 298 302 302 303 307 306 302 298
329 326 319 319 325 326 330 333 332 333 329 322 314 292 252 236 221 213 212 212 209 208 213 217 219 222 226 227 225 228 231 234 244 261 271 281 282 280 286 295 298 299 300 303 309 312 312 308 303
296 308 312 317 323 326 331 334 333 332 329 326 319 301 262 233 221 214 210 205 205 209 214 214 216 219 218 216 218 222 223 233 246 257 270 274 272 277 286 292 294 301 309 316 320 320 321 320 314
303 310 310 314 320 323 329 333 333 333 330 328 324 309 275 229 218 210 205 203 205 206 208 211 212 214 212 215 216 219 223 233 240 247 253 254 251 263 283 290 295 307 322 325 330 331 331 330 326
303 309 311 312 318 322 327 333 334 335 335 331 325 314 287 238 216 202 199 202 201 201 202 206 209 209 209 211 214 219 221 226 231 231 235 232 232 245 266 293 309 318 328 332 340 342 343 343 337
301 305 307 310 316 321 325 333 334 335 337 335 328 310 286 248 204 191 194 193 195 200 202 204 203 204 205 209 213 218 218 220 219 219 219 217 214 217 220 266 346 342 344 348 351 351 351 348 343
298 303 309 312 319 324 329 337 336 338 342 344 341 324 286 219 196 191 190 191 194 197 200 201 200 202 206 210 214 216 216 216 215 212 210 208 203 195 186 160 16 0 356 356 353 353 352 348 343
291 299 307 315 318 322 328 336 337 337 341 346 351 7 43 184 188 188 189 191 196 194 197 199 202 204 207 209 212 216 219 219 213 208 205 204 199 192 187 190 271 340 350 350 349 348 346 343 340
290 298 302 314 322 324 320 328 332 336 342 345 347 5 37 183 184 184 185 189 193 193 198 201 203 203 205 211 215 218 217 214 211 208 207 205 203 201 205 227 266 304 327 335 339 339 339 339 337
287 298 309 318 321 308 309 316 320 327 335 343 352 9 18 169 186 189 191 194 196 198 200 201 205 207 212 215 217 218 215 212 213 213 214 214 213 217 229 247 267 288 306 316 320 326 329 331 332
276 281 286 288 290 296 304 308 311 315 321 329 338 347 354 257 212 205 204 205 204 208 209 210 211 212 216 219 219 219 217 217 219 221 224 227 229 236 246 256 269 284 295 302 306 312 317 320 323
269 267 272 280 290 294 292 297 304 306 308 312 313 318 295 269 238 226 219 216 216 218 220 219 216 218 222 225 224 223 223 224 227 230 234 237 242 249 256 263 271 279 287 294 298 301 306 311 314
262 264 265 271 279 278 284 295 295 298 300 300 298 293 289 277 261 248 238 231 227 229 230 228 226 228 230 231 230 229 229 231 234 238 243 247 251 255 260 266 271 277 282 286 292 297 301 305 309
261 259 258 261 263 265 270 275 276 286 289 291 292 286 278 272 267 257 246 239 236 237 236 236 237 237 236 237 236 236 237 240 243 246 251 255 258 261 265 268 272 275 279 284 290 294 298 301 304
258 254 255 262 266 265 263 267 270 275 279 280 282 282 278 272 267 259 251 246 243 242 241 241 241 242 242 242 242 243 245 248 251 253 256 259 262 264 267 269 271 275 279 283 288 292 296 298 300
Height
5913 5912 5911 5911 5912 5912 5910 5909 5909 5908 5907 5906 5905 5904 5903 5903 5904 5906 5905 5904 5905 5905 5905 5906 5907 5908 5909 5909 5910 5910 5910 5910 5910 5910 5910 5910 5910 5910 5911 5911 5911 5911 5911 5911 5911 5910 5910 5910 5910
5911 5910 5910 5910 5910 5910 5908 5907 5906 5906 5905 5904 5903 5902 5901 5901 5901 5901 5901 5902 5902 5903 5904 5905 5906 5907 5908 5908 5909 5909 5909 5909 5909 5909 5909 5910 5910 5910 5910 5911 5911 5910 5910 5910 5910 5910 5910 5909 5909
5909 5908 5909 5908 5908 5908 5906 5905 5904 5903 5902 5901 5900 5900 5899 5899 5899 5899 5899 5900 5901 5901 5902 5903 5904 5906 5907 5907 5908 5908 5909 5909 5909 5909 5909 5909 5909 5909 5910 5910 5910 5910 5910 5910 5909 5909 5909 5909 5909
5907 5907 5907 5907 5906 5905 5904 5903 5902 5901 5900 5899 5898 5898 5897 5897 5896 5896 5897 5898 5898 5899 5900 5901 5903 5904 5905 5906 5907 5907 5908 5908 5908 5908 5908 5909 5909 5909 5909 5909 5909 5908 5908 5908 5908 5908 5908 5908 5908
5905 5905 5905 5904 5903 5902 5901 5900 5899 5898 5897 5897 5896 5895 5894 5894 5894 5894 5894 5895 5896 5897 5898 5899 5901 5903 5904 5905 5905 5906 5906 5907 5907 5907 5907 5907 5907 5907 5908 5908 5907 5907 5907 5907 5907 5907 5906 5906 5907
5904 5903 5904 5903 5901 5900 5898 5897 5896 5896 5895 5894 5893 5892 5891 5891 5891 5891 5892 5892 5893 5894 5896 5897 5899 5900 5902 5903 5904 5904 5905 5905 5905 5906 5906 5906 5906 5906 5906 5906 5906 5905 5905 5905 5905 5905 5905 5905 5905
5902 5901 5901 5900 5898 5897 5896 5894 5893 5892 5892 5891 5890 5889 5888 5888 5888 5888 5889 5889 5890 5892 5893 5895 5897 5898 5900 5901 5902 5903 5903 5903 5904 5904 5904 5904 5904 5904 5904 5904 5904 5903 5903 5903 5903 5903 5902 5902 5903
5899 5899 5898 5897 5896 5894 5893 5891 5890 5889 5888 5888 5887 5886 5885 5885 5885 5885 5886 5887 5888 5889 5891 5893 5895 5896 5898 5899 5900 5901 5901 5902 5902 5902 5902 5902 5902 5901 5901 5901 5901 5901 5901 5901 5900 5900 5900 5900 5900
5896 5898 5896 5894 5893 5892 5890 5889 5887 5886 5885 5883 5882 5882 5882 5881 5881 5882 5883 5884 5885 5886 5888 5891 5892 5894 5895 5897 5898 5898 5899 5899 5899 5899 5899 5899 5899 5899 5899 5899 5898 5899 5898 5898 5897 5897 5897 5897 5897
5895 5895 5894 5892 5890 5889 5887 5885 5884 5882 5881 5880 5879 5877 5877 5877 5877 5878 5879 5880 5882 5883 5886 5888 5890 5891 5893 5894 5895 5896 5896 5897 5897 5897 5897 5897 5896 5896 5896 5896 5895 5895 5895 5895 5895 5894 5894 5894 5894
5893 5893 5891 5889 5888 5886 5884 5882 5880 5879 5877 5876 5874 5873 5872 5872 5872 5873 5874 5876 5878 5880 5883 5885 5887 5889 5891 5892 5893 5894 5894 5895 5895 5895 5895 5894 5894 5893 5893 5893 5892 5892 5892 5892 5891 5891 5891 5891 5891
5892 5890 5889 5887 5885 5883 5881 5879 5877 5875 5874 5871 5869 5868 5867 5867 5867 5869 5870 5872 5874 5877 5880 5883 5885 5887 5888 5889 5890 5891 5892 5892 5893 5893 5892 5892 5892 5891 5891 5890 5890 5890 5890 5889 5889 5889 5889 5888 5888
5890 5889 5887 5886 5884 5881 5878 5876 5873 5871 5869 5866 5864 5863 5863 5862 5863 5864 5865 5868 5871 5874 5877 5880 5882 5884 5886 5887 5888 5889 5890 5890 5891 5891 5890 5890 5890 5889 5889 5888 5888 5888 5887 5887 5887 5887 5886 5886 5886
5889 5888 5886 5884 5882 5879 5876 5873 5870 5868 5865 5862 5860 5858 5857 5858 5859 5860 5861 5865 5868 5871 5874 5877 5879 5882 5883 5885 5886 5887 5887 5888 5888 5888 5888 5888 5888 5887 5886 5886 5886 5886 5886 5885 5885 5884 5884 5884 5884
5888 5886 5885 5882 5880 5877 5874 5871 5868 5865 5861 5858 5855 5853 5852 5853 5855 5856 5858 5861 5865 5868 5871 5874 5877 5879 5881 5882 5883 5884 5885 5886 5886 5886 5886 5886 5885 5885 5884 5884 5884 5884 5884 5883 5883 5882 5882 5882 5881
5886 5885 5884 5881 5878 5875 5874 5870 5866 5862 5858 5855 5852 5850 5850 5850 5851 5853 5855 5858 5861 5865 5868 5871 5874 5876 5878 5880 5881 5882 5883 5884 5884 5884 5884 5883 5883 5883 5883 5883 5882 5882 5882 5882 5881 5881 5880 5880 5879
5886 5886 5884 5880 5877 5874 5871 5868 5864 5860 5857 5853 5850 5848 5848 5848 5848 5850 5852 5855 5858 5862 5865 5868 5871 5874 5876 5878 5879 5880 5881 5882 5882 5882 5882 5882 5882 5882 5881 5881 5881 5881 5881 5880 5880 5879 5878 5878 5877
5886 5884 5881 5879 5875 5872 5869 5866 5862 5858 5855 5852 5849 5846 5845 5845 5846 5848 5850 5853 5856 5860 5863 5866 5869 5872 5874 5876 5877 5879 5880 5881 5881 5881 5880 5880 5880 5880 5880 5880 5879 5879 5879 5879 5878 5877 5877 5876 5875
5882 5881 5879 5876 5873 5871 5868 5865 5861 5857 5854 5850 5848 5846 5844 5844 5845 5846 5847 5851 5854 5858 5861 5864 5867 5870 5872 5874 5876 5877 5878 5879 5879 5879 5879 5879 5879 5879 5879 5879 5878 5878 5878 5878 5877 5876 5875 5875 5874
5880 5879 5877 5874 5871 5869 5867 5864 5860 5856 5853 5849 5847 5845 5843 5843 5844 5845 5847 5850 5853 5856 5859 5862 5866 5868 5871 5873 5874 5875 5876 5877 5878 5878 5878 5878 5879 5879 5878 5878 5878 5877 5877 5877 5876 5875 5874 5873 5872
5878 5876 5875 5872 5869 5867 5865 5863 5859 5855 5852 5849 5846 5844 5843 5843 5844 5845 5847 5850 5852 5855 5858 5861 5864 5867 5869 5871 5873 5874 5875 5876 5877 5877 5877 5878 5878 5878 5877 5877 5877 5877 5877 5876 5875 5874 5873 5872 5871
5876 5874 5872 5870 5868 5866 5864 5862 5859 5855 5852 5848 5845 5844 5843 5843 5844 5846 5847 5850 5852 5855 5858 5860 5863 5866 5868 5870 5872 5873 5874 5875 5876 5876 5877 5877 5877 5877 5877 5876 5876 5876 5876 5875 5874 5873 5872 5871 5870
5873 5871 5870 5868 5866 5865 5863 5861 5860 5855 5852 5849 5846 5845 5844 5844 5845 5847 5848 5850 5852 5855 5857 5860 5862 5865 5867 5869 5871 5872 5873 5874 5874 5875 5876 5876 5876 5876 5876 5876 5876 5876 5875 5874 5873 5872 5871 5870 5869
5870 5869 5868 5866 5865 5865 5862 5860 5859 5855 5852 5849 5847 5846 5845 5846 5846 5847 5849 5850 5852 5855 5857 5859 5861 5863 5866 5868 5869 5870 5871 5872 5873 5874 5874 5875 5875 5875 5875 5875 5875 5875 5874 5873 5872 5871 5870 5869 5867
5868 5868 5868 5867 5866 5865 5861 5859 5858 5854 5852 5850 5848 5847 5846 5846 5847 5848 5849 5851 5853 5855 5857 5858 5860 5862 5865 5866 5867 5868 5869 5870 5871 5872 5873 5873 5874 5874 5874 5874 5874 5873 5873 5872 5871 5870 5869 5867 5866
5865 5865 5866 5865 5865 5863 5859 5857 5856 5853 5852 5850 5849 5848 5847 5847 5847 5848 5849 5851 5853 5854 5856 5858 5860 5861 5863 5864 5866 5867 5868 5869 5870 5871 5871 5872 5872 5872 5872 5872 5872 5871 5871 5870 5869 5868 5866 5865 5863
5861 5861 5862 5861 5860 5859 5859 5856 5854 5852 5851 5850 5849 5848 5847 5847 5848 5848 5849 5851 5852 5854 5855 5857 5858 5860 5861 5863 5864 5865 5866 5867 5868 5868 5869 5869 5870 5870 5870 5870 5869 5869 5868 5867 5866 5865 5863 5862 5860
5857 5857 5857 5857 5857 5858 5857 5855 5854 5851 5849 5849 5848 5847 5847 5847 5847 5848 5849 5850 5851 5852 5854 5855 5857 5858 5859 5861 5862 5863 5863 5864 5865 5866 5866 5867 5867 5867 5867 5867 5866 5866 5865 5864 5862 5861 5860 5858 5856
5852 5853 5852 5853 5853 5854 5855 5856 5850 5849 5848 5847 5847 5846 5846 5846 5847 5847 5848 5848 5849 5851 5852 5853 5855 5856 5857 5858 5859 5860 5861 5862 5862 5863 5863 5864 5864 5864 5864 5863 5862 5862 5861 5859 5858 5857 5855 5853 5852
5847 5848 5848 5849 5849 5849 5850 5853 5847 5846 5845 5845 5845 5844 5844 5845 5845 5846 5846 5847 5848 5849 5850 5851 5852 5853 5854 5855 5856 5857 5858 5858 5859 5859 5860 5860 5860 5860 5859 5859 5858 5857 5856 5855 5853 5852 5850 5848 5846